Weather in Chermoz

Russia / Perm Krai     58°47′03″N   56°09′02″E
В апреле 2022 года жителям России запретили посещать сайт meteo.paraplan.net по решению Генеральной прокуратуры. Аудитория сайта уменьшилась в 10 раз. Владельцы сайта не видят смысла в поддержке погодного сервера в таких условиях. Сайт будет закрыт в октябре.
temp.,
°C
wind,
m/s
gust,
m/s
humid.,
%
clouds,
%
prec.,
mm/h
press.,
hPa
HPBL,
m
4 october, tue
tue423:00+11ssw6974100 0.1 1022121
02:00+11ssw61071100 0.0 1023181
05:00+10s697097 0.0 1025233
08:00+9s6972100 0.0 1026261
11:00+10ssw686599 0.0 1027224
14:00+12ssw575841 0.0 102869
17:00+12s55585 0.0 102843
20:00+10s57665 0.0 102973
5 october, wed
wed523:00+10s5868100 0.0 1029117
02:00+9s586414 0.0 1029158
05:00+8sse5861100 0.0 1028204
08:00+8s51058100 0.0 1028260
11:00+9ssw71253100 0.0 1028576
14:00+8s5968100 0.5 1028534
17:00+9sse5961100 1.0 1026486
20:00+9s61160100 0.0 1026514
6 october, thu
thu623:00+9s61059100 0.0 1024410
02:00+9sse6957100 0.0 1023376
05:00+7s81275100 0.4 1022543
08:00+6se6887100 4.4 1021342
11:00+7sse61081100 5.4 1019415
14:00+8se51077100 0.0 1017492
17:00+9s4870100 0.1 1015498
20:00+7s4983100 1.4 1015399
7 october, fri
fri723:00+8s687595 1.9 1015439
02:00+7s5785100 0.6 1014387
05:00+7ssw5685100 0.8 1014358
08:00+7ssw4692100 0.7 1013374
11:00+8ssw5788100 1.1 1012392
14:00+8sw81078100 0.1 1011533
17:00+10sw697586 0.4 1010242
20:00+9ssw71278100 0.0 1009703
8 october, sat
sat823:00+8sw81187100 3.3 10081089
02:00+7w71190100 3.6 1008871
05:00+8w81287100 3.8 1009675
08:00+8wnw71177100 0.1 1011849
11:00+8wnw9128298 0.2 1014758
14:00+8wnw91077100 0.1 10151066
17:00+9wnw697780 0.3 1017636
20:00+8w79827 0.1 1019704